RH
19 19 19 19 19 19 19 18 18 18 18 17 17 17 17 17 16 16 16 15 15 14 14 13 13 13 13 12 12 12 11 11 11 10 10 10 10 10 10 10 10 10 10 10 9 9 9 9 9 9 9 9 10 11 12 14 15 17 19 20 21 22 21 21 21 22 24 23 22 20 19 20 20 21 23 23 24 24 24 24 23 22 23 24 25
17 17 17 17 17 16 16 16 16 15 15 15 14 14 14 13 13 13 13 13 13 13 13 12 12 12 12 11 11 11 11 10 10 10 10 10 10 10 9 9 9 9 9 9 9 9 8 8 8 8 8 8 8 9 9 9 10 11 12 13 15 16 16 16 17 19 22 25 24 22 20 19 18 17 18 18 19 20 20 22 23 22 21 22 22
14 15 14 14 14 13 13 13 13 12 12 12 11 11 11 11 12 13 13 13 14 13 13 13 13 12 12 12 12 12 11 11 11 11 11 11 10 10 10 9 9 9 8 8 8 8 8 8 8 8 8 7 7 8 8 8 8 8 8 9 9 10 11 11 11 13 16 20 22 23 22 22 21 19 18 18 16 16 17 17 19 19 19 20 20
11 11 11 11 11 11 11 11 11 11 10 10 10 10 11 12 13 13 14 14 14 14 13 13 13 12 12 12 12 11 11 11 11 10 10 9 9 9 9 8 8 7 7 7 7 7 7 7 7 7 7 7 7 7 7 7 7 7 7 7 7 7 7 7 8 8 9 12 15 18 19 20 21 22 21 20 19 17 17 17 16 17 17 17 18
9 9 9 9 10 9 10 10 10 9 9 9 9 9 9 10 11 11 11 12 12 12 12 11 11 11 10 10 10 9 9 9 8 8 8 7 7 7 6 6 6 6 6 6 6 6 6 6 6 6 6 6 6 6 6 6 6 6 6 6 6 6 6 6 6 6 6 7 9 10 12 14 16 18 19 19 20 19 18 18 18 17 17 17 17
8 8 8 8 8 8 8 8 8 8 8 8 8 8 8 8 8 9 9 9 9 9 9 8 8 8 7 7 7 7 7 7 7 7 6 6 6 6 6 6 6 5 5 5 5 5 5 5 5 5 5 5 5 5 6 6 6 6 5 6 5 5 5 5 5 5 5 6 6 6 7 9 10 11 13 14 15 16 16 17 17 17 18 18 18
7 7 7 8 8 8 8 8 8 8 8 8 8 8 8 7 7 7 7 7 7 7 7 7 7 6 6 6 6 6 6 6 6 6 5 6 6 5 6 5 5 5 5 5 5 5 5 5 5 5 5 5 5 5 5 5 5 5 5 5 5 5 5 5 4 5 5 5 5 5 6 6 7 7 8 9 9 10 11 12 12 13 14 16 16
7 7 7 7 7 7 7 7 7 7 7 7 7 7 7 7 7 7 7 7 7 7 7 7 7 7 6 6 6 6 6 6 6 6 6 6 6 5 5 5 5 5 4 4 4 4 4 4 4 5 4 4 5 5 5 5 5 5 5 4 5 4 4 4 4 4 4 4 4 5 5 5 6 6 6 7 7 7 7 8 8 8 8 10 11
7 7 7 7 7 7 7 7 7 7 7 7 7 7 7 7 7 7 7 7 7 7 7 7 7 7 7 7 7 6 7 6 6 6 6 5 5 5 5 5 5 5 4 4 4 4 4 4 4 4 4 4 4 4 4 5 4 4 4 4 4 4 4 4 4 4 4 4 4 4 4 4 4 5 5 5 6 6 6 6 6 6 6 6 7
7 7 7 7 7 7 7 7 7 7 7 7 7 7 7 7 7 7 7 7 7 7 7 7 7 7 7 7 7 6 6 6 5 5 5 4 5 4 4 4 4 4 4 4 4 4 4 4 4 4 4 4 4 4 4 4 4 4 4 4 3 4 4 3 4 4 3 4 4 4 4 4 4 4 4 5 5 5 5 5 5 5 5 5 5
7 7 7 7 7 7 7 7 7 7 7 7 7 7 7 7 7 7 7 7 7 7 7 7 6 6 6 6 6 5 5 5 4 4 4 3 3 3 3 3 3 3 3 3 3 3 3 3 3 3 3 3 3 4 4 3 4 4 3 4 3 3 3 3 3 3 3 3 4 4 4 4 4 4 4 4 4 4 4 4 4 4 4 4 5
6 6 6 6 6 7 7 7 7 7 7 7 7 7 7 7 6 6 6 6 6 6 6 6 5 5 5 4 4 4 4 4 4 3 3 3 3 3 3 3 3 3 3 3 3 3 3 3 3 2 2 3 2 3 3 3 3 3 3 3 3 3 3 3 3 3 3 3 3 3 4 4 4 4 4 4 4 4 4 4 4 4 4 4 4
5 5 5 5 6 5 6 6 6 6 6 6 6 6 5 6 5 5 5 5 5 5 5 5 5 4 4 4 4 4 4 4 4 3 4 3 3 3 3 3 4 3 3 3 3 3 3 3 3 3 2 2 2 2 2 2 2 2 3 2 3 3 3 3 3 3 3 3 3 3 3 3 3 3 4 4 4 4 4 4 4 4 4 4 4
5 5 5 5 5 5 5 5 5 5 5 5 5 5 5 5 5 5 5 5 5 5 5 5 5 4 4 4 4 4 4 4 4 3 4 4 3 3 3 3 3 3 3 3 3 3 3 3 3 3 2 2 3 2 2 2 2 2 2 2 2 2 2 2 3 3 3 3 3 3 3 3 3 3 3 3 3 3 4 4 4 4 4 4 4
5 5 5 5 5 5 5 5 5 5 5 5 5 5 5 5 5 4 5 5 4 5 5 5 5 4 4 4 4 4 4 4 4 3 3 4 3 3 3 3 3 3 3 3 3 3 3 3 3 3 3 2 2 3 2 2 2 2 2 2 2 2 2 2 2 2 3 3 3 3 3 3 3 3 3 3 3 3 3 3 4 4 4 4 4
5 5 5 5 5 5 5 5 5 5 5 5 5 5 4 4 4 4 4 5 4 5 5 5 5 4 4 4 4 4 4 3 3 3 3 4 3 3 3 3 3 3 3 3 3 3 3 3 3 3 3 3 2 3 2 2 2 3 2 2 2 2 2 2 2 2 2 2 2 3 3 3 3 3 3 3 3 3 3 3 4 4 4 4 4
6 6 6 5 5 5 5 5 5 5 5 5 5 5 4 4 4 4 4 4 4 5 4 4 4 4 4 4 4 4 4 3 3 4 3 3 3 3 3 3 3 3 3 3 3 3 3 3 3 3 3 3 3 2 2 2 2 2 3 3 2 3 3 2 2 2 2 2 2 2 2 3 3 3 3 3 3 3 4 4 4 4 4 4 4
5 5 5 5 5 5 5 5 5 5 5 5 5 4 4 4 4 4 4 5 4 5 4 4 5 4 4 4 4 3 3 3 3 3 3 3 3 3 3 3 3 3 3 3 3 3 3 3 3 3 3 3 3 2 2 2 3 3 3 3 3 3 3 3 3 2 2 2 2 2 3 2 2 2 2 2 3 3 3 3 3 3 4 4 4
5 5 5 5 5 5 4 4 4 4 4 4 4 4 4 4 4 4 4 4 4 4 4 4 4 4 4 3 3 3 3 3 3 3 3 3 3 3 3 3 3 3 3 3 3 3 3 3 2 3 3 2 2 2 2 2 3 3 3 3 3 3 3 3 3 3 3 3 3 3 3 2 2 2 2 2 3 2 2 3 3 3 3 3 3
5 5 5 5 5 5 4 4 5 4 4 5 4 4 4 4 4 5 4 5 5 4 5 5 4 4 4 3 3 3 3 4 3 3 3 3 3 2 2 2 3 3 3 3 3 3 2 2 3 2 3 3 2 2 2 2 2 3 3 3 3 3 3 3 3 3 3 3 3 3 3 2 2 2 2 2 2 2 2 2 2 2 2 2 3
5 5 5 5 5 5 4 4 5 4 4 5 4 4 5 4 4 5 5 5 5 4 4 5 4 4 4 3 3 3 3 4 4 3 3 3 3 2 2 3 3 3 3 2 2 2 2 2 3 2 2 3 2 2 2 2 2 3 3 3 3 3 3 3 3 3 3 3 3 3 3 3 2 2 2 2 2 2 2 2 2 2 2 2 2
5 4 4 4 4 4 4 4 4 4 4 4 4 4 4 4 4 4 5 5 5 5 4 4 4 4 4 3 3 3 3 4 4 4 4 3 3 3 2 3 3 3 3 3 2 2 2 2 2 2 2 2 2 2 2 2 3 3 3 3 3 3 3 3 3 3 3 3 3 3 3 3 3 3 2 2 3 3 2 2 2 2 2 2 2
4 4 4 4 4 4 4 4 3 4 3 4 4 4 4 4 4 4 4 4 4 4 4 4 4 4 3 3 3 3 4 4 3 4 4 3 3 3 3 3 3 3 3 3 2 2 3 3 3 2 3 3 2 2 3 2 3 3 3 3 3 3 3 3 3 3 3 3 3 3 3 3 3 3 3 3 3 3 3 3 3 2 3 3 2
4 4 4 4 4 4 4 3 3 3 3 3 3 3 3 3 3 3 4 4 4 4 4 4 4 4 3 3 3 3 3 4 4 3 3 3 3 3 3 3 3 3 3 3 3 3 3 3 3 3 3 3 3 3 3 3 3 3 3 3 3 3 3 3 3 3 3 3 3 3 3 3 3 3 3 3 3 4 3 3 3 3 3 3 3
4 4 4 4 4 4 4 4 3 3 3 3 3 3 3 3 3 3 3 3 4 4 4 4 3 3 3 3 3 3 3 3 4 3 3 3 3 3 3 3 3 3 3 3 3 3 3 3 3 3 3 3 3 3 3 3 3 3 3 3 3 3 3 3 3 3 3 3 4 3 3 3 4 4 4 4 4 4 4 4 4 4 3 3 3
4 4 4 4 4 4 4 4 4 4 3 3 3 3 4 3 3 4 4 4 4 4 4 4 4 3 3 3 3 3 3 3 3 3 3 3 3 3 3 3 3 3 3 3 3 3 3 3 3 3 3 3 3 3 3 3 3 3 3 3 3 3 3 3 3 3 3 3 3 3 3 3 4 4 4 4 4 4 4 4 4 4 4 3 3
4 4 4 4 4 4 4 4 4 4 3 4 3 3 4 4 4 4 4 4 4 4 4 4 4 3 3 3 3 3 3 4 3 3 3 3 3 3 3 3 3 3 3 3 3 3 3 3 3 3 3 3 3 3 3 3 3 3 3 3 3 3 3 3 3 3 4 4 3 4 4 3 4 4 4 4 4 4 4 4 4 4 4 3 3
4 4 4 4 4 4 4 4 4 4 3 3 3 3 3 3 3 4 4 4 4 4 4 4 4 3 3 3 3 3 3 4 4 3 3 3 3 3 3 3 3 3 3 3 3 3 3 3 3 3 3 3 3 3 3 3 3 4 4 3 3 3 3 3 4 4 4 4 4 4 4 4 4 4 4 4 4 4 4 4 4 4 4 3 3
4 4 4 4 4 4 4 4 4 4 4 3 3 3 3 3 4 3 3 4 4 4 5 4 4 3 3 3 3 3 3 4 4 4 3 3 3 3 3 3 3 3 3 3 3 3 3 3 3 3 3 3 3 3 3 3 3 3 4 3 3 3 3 3 4 4 4 5 5 4 4 4 4 4 4 4 4 4 4 4 4 3 3 3 3
4 4 4 4 4 4 4 4 4 4 4 4 3 3 3 3 3 4 3 4 4 4 5 4 4 3 3 2 3 3 3 3 4 4 4 3 3 3 3 3 3 3 3 3 3 3 3 3 3 3 3 3 3 3 3 4 4 4 4 4 3 3 3 4 4 4 5 5 5 4 4 4 4 4 4 4 4 4 4 4 3 3 3 3 3
5 5 4 4 4 4 4 4 4 4 4 4 3 3 3 3 3 3 4 4 4 4 4 4 4 4 3 3 3 3 3 3 3 4 4 3 3 3 3 3 3 3 3 3 3 3 3 3 3 3 4 3 4 4 4 4 4 4 3 4 4 4 4 4 4 5 5 5 5 4 4 4 4 4 5 5 4 4 4 3 3 4 3 3 3
5 5 4 4 4 4 4 4 4 4 4 4 4 3 4 3 2 3 3 4 4 4 4 4 4 4 3 3 3 3 4 4 3 3 4 4 3 3 3 3 3 3 3 3 3 3 3 3 3 3 4 4 4 4 4 4 4 3 3 4 4 4 4 4 4 5 5 5 5 4 4 4 5 4 5 5 4 4 4 4 4 4 4 4 4
4 4 4 4 4 4 4 4 4 4 4 4 4 3 4 4 3 3 3 3 4 5 5 4 4 3 3 3 3 4 4 4 4 4 3 4 4 3 4 4 3 3 3 3 3 3 3 4 4 3 4 4 4 4 4 4 4 4 3 4 4 4 4 5 4 5 5 5 5 5 4 5 5 5 5 5 4 4 4 4 4 4 4 4 4
4 4 4 4 4 4 5 4 4 4 4 4 4 4 4 4 4 3 3 3 3 4 5 5 4 3 3 3 3 4 4 4 4 4 3 3 4 3 4 4 3 3 4 3 3 4 3 4 4 4 4 4 4 4 4 4 4 4 4 4 4 4 4 5 5 5 5 5 4 5 5 5 5 4 4 5 4 5 5 5 5 5 5 5 5
5 4 4 5 4 4 5 4 4 4 4 4 4 4 4 4 4 4 3 3 3 3 4 5 5 4 3 3 3 4 4 4 4 4 4 3 3 3 4 4 3 4 4 3 3 4 3 4 4 4 4 4 4 4 4 4 4 4 4 4 4 4 5 5 5 5 5 5 5 5 5 5 5 4 5 5 5 5 5 5 5 6 6 6 6
5 4 4 4 4 4 5 5 5 5 4 4 4 4 4 4 4 4 4 3 3 3 3 4 5 5 4 4 3 3 4 4 4 5 4 4 3 3 4 4 4 4 4 4 4 4 4 4 4 4 4 4 4 4 4 4 4 4 4 4 5 5 5 6 5 5 5 5 5 5 5 5 5 4 5 5 5 5 5 5 6 6 6 6 6
5 5 5 5 5 5 5 4 5 5 4 4 4 4 4 4 4 4 4 4 3 4 3 3 4 5 4 4 3 3 4 4 4 5 5 4 4 3 3 4 4 4 4 4 4 4 4 4 4 4 4 4 4 4 4 4 4 4 4 4 5 5 5 6 5 5 5 5 5 5 5 5 5 5 5 5 5 5 5 5 6 6 7 7 7
4 4 5 5 4 5 5 4 5 5 4 4 5 4 4 5 4 4 4 4 4 4 4 3 4 4 4 4 4 3 4 4 4 5 5 4 4 4 3 4 4 4 4 4 4 4 4 4 4 4 5 4 4 5 5 4 5 5 5 5 5 5 6 6 5 5 6 6 6 6 5 5 5 5 5 5 5 5 5 5 6 7 7 7 7
4 4 4 5 4 5 5 5 5 5 4 4 5 4 4 4 4 4 4 4 4 4 4 4 4 4 4 4 4 3 3 4 4 5 5 5 5 4 4 4 4 4 4 4 4 4 4 4 4 4 5 5 5 5 5 5 5 5 5 5 6 6 6 6 6 6 6 6 6 6 5 5 5 5 5 5 5 6 6 6 6 7 7 7 7
4 4 4 4 4 5 5 5 5 5 5 4 4 4 4 4 4 4 4 4 4 4 4 4 4 4 4 4 4 4 4 4 4 5 5 5 5 4 4 4 4 4 4 4 4 4 4 4 5 5 5 5 5 5 5 5 5 5 5 6 6 6 6 6 6 6 6 6 6 6 5 5 5 5 5 6 6 6 6 7 7 7 7 7 6
4 4 4 4 5 5 5 5 5 5 5 5 4 4 4 4 4 4 4 4 4 5 4 4 4 4 4 4 4 4 4 4 4 4 5 5 5 5 4 4 4 4 4 4 4 5 4 4 5 5 5 5 5 5 5 5 5 5 6 6 6 7 6 6 6 6 6 6 6 5 5 6 6 6 6 6 7 7 7 7 7 7 7 7 6
4 5 4 4 5 5 4 5 5 5 5 5 4 4 4 4 4 5 5 4 5 5 4 5 4 4 4 4 4 4 4 4 4 4 5 5 5 5 5 5 4 4 4 4 4 5 5 5 5 5 5 5 5 5 5 6 5 6 6 6 7 7 7 7 7 6 6 6 6 5 6 6 7 8 8 8 8 8 8 8 7 7 7 7 7
4 5 5 4 5 5 4 5 5 5 5 5 4 4 4 4 4 5 4 5 5 5 4 5 4 4 4 4 4 4 4 4 4 4 4 5 6 5 5 5 4 4 4 4 5 5 5 5 5 5 5 5 5 5 6 6 6 6 6 7 7 7 7 7 7 7 7 7 6 6 7 8 8 9 10 10 10 9 9 8 8 7 7 7 7
5 5 4 4 5 4 4 5 5 5 5 5 4 5 5 4 4 5 4 5 5 5 5 5 5 4 5 4 4 5 5 4 4 4 4 5 6 5 5 5 4 4 4 4 5 5 5 5 5 5 5 6 6 6 6 6 6 6 7 7 7 7 7 7 8 8 7 7 7 7 8 9 10 11 11 11 10 10 9 9 8 8 8 7 7
5 5 4 5 5 5 5 5 5 5 5 5 4 5 5 4 4 5 4 5 5 5 5 5 4 4 5 4 4 4 5 4 4 4 4 5 5 5 5 5 5 4 4 4 5 5 5 5 5 5 5 6 6 6 6 6 6 6 7 7 7 7 7 7 8 8 8 8 8 8 9 10 11 11 11 11 11 10 9 9 9 8 8 8 8
5 5 5 5 5 5 5 5 5 4 5 5 5 5 5 4 5 5 5 5 5 5 5 5 5 5 5 5 4 4 4 4 4 4 4 5 5 5 5 5 5 5 5 4 5 5 5 5 5 5 5 6 6 6 6 6 6 6 7 8 8 8 7 7 8 8 8 8 8 9 10 11 11 12 11 11 10 10 9 8 8 8 8 8 9
5 5 5 5 5 5 5 5 5 5 5 5 5 5 5 4 5 5 5 5 5 5 5 5 5 5 5 5 5 5 4 4 4 4 4 5 5 5 5 5 5 5 5 4 5 5 5 5 5 5 5 6 6 6 6 6 6 7 7 8 8 8 7 8 8 8 9 9 9 9 11 11 12 12 12 11 10 10 9 8 9 9 8 9 10
6 6 5 5 5 5 5 5 5 5 5 4 5 5 5 5 5 5 5 5 5 5 5 5 5 5 5 5 5 5 4 4 4 4 4 5 5 5 5 5 5 5 5 5 5 5 5 5 5 5 5 6 6 6 7 7 6 7 8 8 8 8 8 8 9 9 9 9 10 10 11 12 12 12 12 11 10 10 9 9 9 9 10 11 11
6 6 6 5 5 5 5 5 5 5 5 4 5 5 5 5 5 5 5 5 5 5 5 5 5 5 5 5 5 5 4 4 4 4 4 4 5 5 5 5 5 5 5 5 5 5 5 5 5 5 5 6 6 6 7 7 7 7 8 8 8 8 8 8 9 9 9 9 10 11 11 12 12 12 12 11 11 10 10 9 10 10 11 12 12
6 6 6 6 5 5 5 5 5 5 5 4 4 5 5 5 5 5 5 5 5 5 5 5 5 5 5 5 5 5 5 4 4 4 4 4 4 5 5 5 5 5 5 5 5 5 5 5 6 5 5 6 6 6 7 7 7 7 8 8 8 9 9 9 10 10 10 10 10 11 12 12 12 11 11 11 11 11 11 10 11 11 12 13 14
6 6 6 6 5 5 5 5 5 5 5 5 5 5 5 5 5 5 5 5 5 5 5 5 5 5 5 5 5 5 5 5 4 4 4 4 4 5 5 5 5 5 5 5 5 5 5 5 6 6 5 6 6 6 6 7 7 8 8 9 9 9 9 9 10 10 10 10 11 11 12 12 12 12 11 11 12 12 12 12 12 13 13 14 16
Wind_Speed
125 125 124 124 124 124 124 124 124 124 124 124 124 124 123 123 123 122 122 122 121 121 120 120 119 118 118 117 117 116 116 115 115 114 114 114 114 113 113 113 114 114 114 115 116 117 117 118 119 121 124 127 129 132 135 139 141 143 145 147 148 148 147 146 144 141 144 148 149 147 147 148 148 147 148 147 147 146 144 143 142 141 140 139 139
122 122 122 121 121 121 121 121 121 121 121 121 120 120 120 120 119 119 118 118 117 117 116 115 115 114 114 113 113 112 112 112 111 111 111 110 111 111 111 111 112 112 113 113 114 115 115 115 116 118 121 123 125 128 131 134 137 140 142 144 145 147 147 146 145 143 145 150 151 150 148 148 148 149 149 150 149 148 147 147 146 145 143 143 142
119 119 119 119 118 118 118 118 118 117 117 117 117 116 116 116 115 115 114 114 114 113 113 112 112 111 111 111 110 110 110 110 110 110 110 110 110 110 111 111 111 111 112 112 113 113 114 114 115 117 119 120 121 124 127 130 132 135 137 139 141 143 144 144 142 142 144 148 151 152 150 150 150 150 150 150 150 149 149 149 148 148 147 146 145
116 116 116 116 116 115 115 115 115 115 114 114 114 113 113 113 112 112 111 111 111 111 111 110 110 110 109 109 109 108 108 108 108 109 109 109 109 109 110 110 110 110 110 110 111 112 113 113 114 116 117 118 119 121 124 126 128 130 132 134 136 137 139 140 139 138 139 143 147 149 150 150 151 152 152 152 151 149 148 148 149 149 149 148 147
113 113 113 113 113 113 113 113 113 112 112 111 111 111 110 110 110 110 109 109 109 109 109 108 108 108 107 107 107 107 106 106 106 107 107 107 107 107 107 107 107 107 107 108 109 110 111 111 112 114 115 116 117 119 121 123 125 127 128 129 131 132 133 134 134 133 133 135 139 143 145 147 149 150 152 153 152 151 150 149 149 149 149 149 149
110 110 109 109 109 109 109 109 109 109 109 109 109 108 108 108 108 108 107 107 107 107 107 107 106 106 105 105 105 104 104 104 104 105 105 105 105 104 104 104 104 104 105 105 106 107 108 108 109 111 112 113 114 116 118 120 122 124 125 126 127 128 128 128 128 128 127 128 131 133 136 139 142 145 147 149 151 151 151 151 150 149 149 148 148
106 106 106 106 106 106 107 107 107 107 107 107 107 107 107 107 106 106 106 105 105 105 105 105 104 104 103 103 103 102 102 102 103 103 103 103 102 102 102 102 102 102 102 102 103 104 104 105 106 107 108 110 111 113 115 117 119 121 122 123 124 124 124 124 124 123 123 123 124 126 127 129 132 136 139 142 145 146 147 149 149 149 148 148 148
104 104 104 104 104 104 105 105 105 105 105 105 105 105 105 105 105 104 104 104 103 103 103 103 103 102 102 101 101 100 100 100 100 100 100 100 100 100 99 99 99 98 98 98 99 100 100 102 103 104 105 106 108 110 112 114 116 118 119 120 121 120 120 120 120 120 119 119 120 120 121 122 124 126 129 131 135 138 140 142 143 143 142 143 144
102 102 102 102 102 102 103 103 103 103 103 103 103 103 103 103 102 102 101 101 101 101 100 100 100 100 99 99 98 98 97 97 98 98 97 97 96 96 96 95 95 94 94 94 94 95 96 97 98 100 101 103 104 106 109 111 113 114 116 117 118 117 117 117 117 116 115 115 116 116 117 117 119 120 122 124 126 129 131 132 132 132 131 132 134
99 99 99 100 100 100 100 100 101 101 100 100 100 100 100 100 99 99 98 98 98 98 98 97 97 97 96 96 96 95 95 95 95 95 94 93 92 92 91 91 91 90 90 91 91 92 93 94 95 97 98 99 101 103 105 108 109 111 112 114 114 113 113 113 113 113 113 113 113 113 113 114 115 117 118 119 121 122 123 122 121 121 121 122 123
96 96 97 97 97 97 97 97 98 98 97 97 97 97 97 97 96 96 96 96 95 95 95 95 95 94 94 93 93 93 93 93 92 91 91 90 89 88 87 87 87 87 88 88 89 90 91 91 92 93 95 96 98 100 102 104 106 107 108 109 110 109 109 109 109 109 109 109 110 110 110 111 113 114 115 116 117 118 117 115 114 114 114 114 116
93 94 94 94 94 94 95 95 95 95 95 95 95 95 95 95 94 93 93 93 93 93 93 93 92 92 91 90 90 90 91 91 90 88 88 87 87 85 84 83 83 84 85 86 86 87 88 88 89 89 90 92 94 96 98 100 102 103 104 105 105 105 105 105 105 105 105 105 106 107 107 108 110 111 112 113 114 114 113 112 111 110 110 110 111
91 92 92 92 92 92 92 93 93 93 93 93 93 93 93 92 92 91 90 90 90 90 90 90 90 89 89 88 87 88 88 88 87 86 85 84 84 83 81 80 81 81 82 82 83 83 84 85 85 86 86 87 89 91 94 96 97 98 99 100 101 101 101 101 101 101 101 102 102 103 104 105 106 107 108 109 109 109 109 110 109 108 107 107 108
89 89 89 89 89 89 90 90 90 91 91 90 91 90 90 89 89 88 87 87 87 87 87 87 87 87 87 85 85 85 86 85 84 82 82 81 81 81 80 79 78 78 79 79 80 80 81 82 82 83 83 84 85 87 89 90 91 92 94 95 96 96 97 97 97 97 98 98 99 100 102 102 103 104 104 105 105 105 105 105 105 105 104 104 105
85 85 86 85 85 85 86 86 87 87 87 87 87 87 87 86 86 85 85 85 85 85 85 85 85 85 85 84 83 83 83 82 80 79 79 79 80 79 78 77 76 76 76 77 77 78 79 80 80 80 81 81 82 83 85 86 86 86 88 89 90 91 92 93 93 94 94 95 96 98 99 99 99 100 101 100 100 100 100 100 100 100 100 101 103
83 83 83 83 82 82 82 82 83 83 83 84 84 84 84 83 83 82 82 82 82 82 82 82 82 82 83 82 80 80 80 79 77 76 77 78 78 77 76 75 74 74 74 75 75 77 77 77 77 77 78 79 79 81 82 81 81 81 82 84 85 86 87 89 90 90 91 92 93 95 96 96 96 97 97 96 96 96 96 96 95 95 96 97 100
82 82 82 81 81 81 80 80 81 81 81 81 82 82 81 80 80 79 78 78 79 79 79 79 79 79 79 79 79 77 77 76 75 74 75 76 76 75 74 73 72 72 73 73 73 74 75 75 75 75 76 76 77 79 79 77 76 77 78 79 80 81 83 85 86 86 87 88 90 91 92 93 93 94 93 93 92 92 92 91 91 91 92 94 97
80 80 80 80 80 79 79 79 78 79 79 79 79 79 79 78 77 76 75 75 76 77 76 76 77 78 78 78 77 76 74 74 73 73 73 74 74 73 72 70 69 70 71 72 72 72 73 72 72 73 74 75 76 76 75 73 73 74 75 76 77 78 80 82 82 83 84 84 85 87 88 89 90 90 90 89 89 88 88 88 89 89 89 92 94
78 78 78 78 77 77 77 77 76 76 76 77 77 77 76 75 75 74 74 73 74 74 75 75 76 78 78 77 76 73 71 71 72 72 72 73 73 72 69 67 66 67 69 69 70 70 70 69 69 70 71 73 73 73 72 70 70 71 73 73 74 76 78 79 80 80 80 80 81 82 84 85 86 86 86 85 85 85 85 86 87 87 88 90 92
75 75 75 75 75 75 75 74 74 74 74 74 75 74 73 72 72 72 72 72 72 72 72 73 74 76 77 76 74 70 67 67 70 71 70 71 71 70 66 64 63 64 66 67 67 67 67 66 67 68 69 70 70 70 69 68 68 69 70 71 72 74 75 76 76 77 76 76 78 79 81 82 82 82 82 82 82 82 83 84 85 86 87 89 89
73 73 73 73 73 73 73 72 72 71 71 71 71 71 70 69 68 68 68 69 69 69 70 70 72 74 75 74 71 67 64 64 67 69 68 69 69 67 64 61 61 62 64 65 65 65 64 64 65 65 66 67 67 67 66 66 65 66 67 69 70 72 73 73 73 73 73 74 76 77 79 80 80 79 79 79 79 80 81 82 83 84 85 87 88
70 70 70 70 70 70 70 69 69 68 68 68 68 68 67 66 65 65 65 66 67 67 68 69 70 72 73 71 67 63 62 63 64 66 66 67 66 64 62 60 59 60 63 64 63 62 62 61 62 63 63 64 64 64 64 63 63 63 66 68 68 69 69 70 70 70 71 72 74 75 77 78 77 77 76 76 77 78 79 80 81 82 83 84 86
69 69 68 68 68 68 68 67 66 66 65 65 65 64 64 64 63 62 62 63 64 65 66 67 69 70 71 69 65 60 60 61 62 63 64 65 64 62 60 59 58 59 61 62 62 60 59 59 59 60 61 61 61 61 61 61 60 62 64 66 66 66 67 68 68 68 69 71 72 73 74 75 75 74 74 74 75 76 77 79 79 79 80 81 82
67 67 66 66 66 66 66 65 65 64 63 63 63 62 62 61 61 60 59 60 61 62 64 65 66 67 68 66 62 58 57 59 60 60 62 63 62 60 58 57 56 56 58 60 60 57 56 57 57 57 58 58 58 58 59 58 58 60 62 63 63 64 65 66 67 67 68 69 71 72 72 73 72 72 71 71 72 73 75 76 76 75 76 77 78
65 65 64 64 64 64 64 64 63 62 62 61 61 60 60 59 58 58 58 58 58 60 62 63 64 65 64 62 59 56 54 56 58 59 59 60 59 58 56 55 54 54 55 57 58 56 54 55 55 55 55 55 56 56 56 57 57 58 60 61 63 64 64 65 65 66 67 68 70 71 71 70 70 69 68 68 70 71 72 72 72 72 73 75 76
64 64 63 63 62 62 62 62 62 62 61 60 59 58 57 57 57 56 56 57 57 58 60 61 61 62 61 58 56 53 52 54 57 57 56 56 56 55 54 53 51 51 53 55 55 54 53 52 53 53 53 53 54 54 54 55 55 56 58 60 62 63 63 63 63 64 66 67 68 68 68 67 66 66 66 67 69 70 70 69 69 70 72 74 75
63 62 62 61 61 60 60 60 60 60 60 59 58 56 54 53 53 53 54 55 55 56 58 59 59 60 59 55 52 50 49 51 55 56 54 53 51 50 51 51 49 49 51 52 52 52 51 50 50 51 51 52 53 53 52 52 52 54 56 59 60 61 61 60 61 62 63 64 64 64 63 64 64 65 66 68 68 68 67 67 67 69 71 73 74
61 61 60 60 59 58 57 57 57 58 58 58 57 55 53 51 50 50 50 51 52 54 56 57 57 57 56 53 50 48 46 47 52 54 53 50 48 46 48 49 48 47 49 50 49 49 49 48 49 49 50 50 51 51 51 51 51 52 54 57 58 59 58 58 58 59 60 60 61 61 62 63 64 65 66 66 66 65 65 66 67 69 70 71 71
60 59 59 59 58 57 56 55 55 55 56 56 56 54 51 49 48 48 48 47 48 51 53 55 55 54 53 50 47 46 44 43 47 51 52 49 45 44 45 47 47 46 47 48 47 46 46 46 47 48 48 49 49 49 49 49 50 51 53 54 55 56 55 55 56 56 57 58 60 61 61 62 63 63 63 63 63 62 64 66 67 68 68 68 68
58 58 58 57 56 55 54 54 53 52 52 53 54 54 51 47 44 44 46 47 46 47 50 52 53 53 51 48 44 43 43 41 41 45 49 48 44 43 44 45 45 45 46 45 44 44 44 45 45 46 47 47 47 47 48 49 49 50 51 52 53 54 53 54 55 55 56 57 59 59 59 59 60 61 60 60 60 61 63 65 66 66 65 66 66
57 56 56 54 53 52 52 52 51 51 50 50 51 52 52 49 43 39 40 43 46 47 47 48 50 51 51 48 43 40 40 40 39 40 44 45 44 42 42 43 43 43 43 43 42 42 43 43 44 45 45 45 45 46 47 48 50 50 51 51 51 52 52 53 54 55 55 57 58 57 57 57 58 58 58 58 59 61 63 64 63 63 63 64 65
55 54 54 53 51 50 50 50 50 50 49 49 48 48 50 51 47 41 36 36 41 45 47 46 45 47 49 48 44 39 37 39 39 39 40 41 42 42 41 41 42 42 41 41 41 41 41 42 42 43 43 43 44 45 47 48 49 49 49 49 49 50 51 52 53 54 54 55 56 56 56 56 56 56 56 56 58 60 61 61 60 60 62 63 63
54 53 53 52 51 50 49 49 49 48 48 48 48 47 47 48 48 46 40 34 33 38 44 46 44 43 44 47 45 40 36 36 37 39 39 38 39 40 40 39 40 40 39 39 40 40 40 40 40 40 41 42 43 45 46 47 47 47 47 47 48 48 49 50 51 52 53 53 54 54 54 54 54 55 55 56 57 58 58 58 58 59 60 61 62
54 53 52 52 51 50 49 49 48 48 47 46 46 46 45 45 46 46 44 39 33 32 36 42 43 42 41 43 43 41 37 35 35 37 38 37 37 37 37 37 38 38 38 38 38 38 38 38 38 39 39 41 43 44 45 45 45 45 46 46 47 47 48 49 50 51 51 52 52 52 53 53 53 54 54 55 56 57 57 56 57 58 59 60 61
55 54 53 52 51 50 49 48 48 47 46 45 44 44 43 44 44 44 44 43 39 34 33 36 39 41 40 40 40 38 36 34 34 36 37 36 35 35 35 35 36 36 36 36 37 37 37 37 37 37 39 40 42 43 43 43 44 44 45 45 46 47 47 48 49 49 50 50 50 51 51 52 52 53 54 54 55 56 56 56 56 57 58 59 60
55 54 53 52 51 50 49 48 47 47 46 45 44 42 42 41 42 42 41 41 40 38 35 34 35 38 39 39 39 37 34 32 32 33 35 35 34 34 33 33 34 34 35 35 35 35 35 35 35 36 38 40 41 41 42 42 42 43 44 45 46 46 47 47 48 48 48 48 49 49 50 51 51 52 53 54 55 56 56 56 56 56 57 58 59
54 54 53 52 52 51 50 48 47 46 45 45 43 42 41 40 40 40 40 39 39 38 37 35 33 34 36 38 38 36 34 32 31 31 32 33 33 32 32 32 33 33 34 34 34 34 34 34 35 36 37 39 40 40 41 41 42 42 43 44 45 46 46 47 47 47 47 47 48 48 49 50 50 51 52 53 54 55 55 55 56 56 57 58 58
54 53 52 51 51 50 50 49 48 46 45 44 43 42 41 40 39 39 39 39 38 37 36 35 33 32 34 36 36 35 33 32 31 31 31 31 31 31 31 31 32 32 33 33 33 33 33 33 34 35 36 38 38 39 39 40 41 41 42 43 44 45 46 46 46 46 46 46 46 47 48 49 50 51 51 52 53 53 54 55 56 57 57 58 59
55 53 52 51 50 50 49 49 48 47 45 43 42 41 40 39 39 39 38 37 37 37 36 34 33 32 32 33 35 34 32 30 29 30 30 30 30 30 30 30 31 32 32 32 32 32 33 33 34 35 36 37 37 38 39 39 40 41 41 42 43 44 45 45 45 45 45 45 46 46 47 48 49 50 50 51 52 53 54 55 56 57 58 59 59
55 54 52 51 50 49 49 48 48 47 46 44 42 41 40 39 38 38 37 37 36 36 35 34 33 31 30 30 32 33 32 29 27 27 29 30 29 29 29 29 30 30 31 31 32 32 32 33 33 34 35 36 37 38 38 39 39 40 41 42 42 43 44 44 44 44 44 45 45 46 46 47 48 49 50 51 53 54 55 56 57 58 58 59 59
55 54 53 52 51 50 49 48 48 47 46 45 43 41 40 39 38 37 37 36 35 35 34 34 32 31 29 29 29 30 31 29 27 26 27 28 28 28 28 28 29 29 30 31 31 32 32 33 33 34 35 35 36 37 38 39 39 40 40 41 41 42 42 42 42 43 43 44 45 46 46 46 47 48 49 51 52 53 55 56 57 58 58 58 58
56 54 53 52 51 50 49 48 47 47 46 45 44 42 40 39 38 37 36 36 35 34 33 33 32 30 29 28 28 28 29 28 27 25 25 26 26 26 26 27 27 28 29 30 30 31 32 32 33 34 34 35 36 37 37 38 39 39 40 40 41 41 41 41 41 41 42 43 44 45 45 46 47 48 49 50 52 53 54 55 56 56 56 56 57
57 55 53 52 50 49 48 47 46 46 45 45 44 43 41 39 38 37 36 35 35 34 32 32 31 30 28 27 27 27 27 27 25 24 23 24 25 25 25 25 26 27 28 29 30 31 32 32 33 33 34 34 35 36 37 38 38 39 39 40 40 40 40 40 40 40 41 42 43 44 45 46 47 48 50 51 52 53 54 54 55 55 55 56 56
58 56 54 52 51 50 49 47 46 45 44 44 43 43 42 40 38 37 36 35 34 33 32 31 30 30 28 27 26 25 25 25 24 23 22 22 23 24 24 24 25 25 27 28 29 30 31 32 33 33 34 34 34 35 36 37 38 38 39 39 40 40 41 40 40 40 41 42 43 44 45 47 48 50 51 52 52 53 54 54 54 55 55 55 55
59 58 56 54 52 51 50 49 47 45 44 43 42 42 41 40 39 37 36 35 35 33 32 31 30 29 28 26 25 24 24 24 23 23 21 21 22 23 23 23 23 24 25 27 28 29 30 31 32 33 33 33 34 35 36 37 38 38 39 39 40 40 40 40 40 41 42 42 44 45 46 48 49 51 52 53 53 54 54 54 54 54 54 54 53
59 59 57 56 54 52 51 50 48 46 44 42 42 41 40 39 38 37 36 35 34 34 32 31 30 28 27 26 25 23 23 22 22 22 21 21 21 22 22 22 22 23 24 25 27 29 30 31 32 32 33 33 33 34 35 36 37 38 38 39 39 40 40 40 41 41 42 43 44 46 47 48 50 51 52 53 54 54 54 54 53 53 53 52 52
59 59 58 57 55 53 51 50 49 47 45 42 41 41 40 39 38 37 36 35 34 33 32 31 30 28 27 25 24 23 22 21 21 21 21 21 20 21 21 21 21 22 23 24 26 28 29 30 31 32 33 33 33 34 35 36 37 38 38 39 39 40 40 40 41 42 43 44 45 46 48 49 50 51 52 53 53 52 52 52 52 51 51 51 51
58 58 57 56 55 53 52 50 50 48 46 44 41 40 40 39 38 38 36 35 34 33 32 31 30 28 27 25 24 23 22 21 20 20 21 21 20 20 20 20 20 21 22 23 24 26 28 30 31 32 32 32 33 33 34 36 37 38 38 39 39 39 40 40 41 42 43 44 45 47 48 50 51 52 52 52 52 51 50 50 50 50 50 50 51
57 57 56 56 55 53 52 50 49 48 47 45 42 40 39 39 38 38 37 36 34 33 32 30 29 28 27 25 24 23 22 21 20 20 20 21 20 20 20 20 20 20 21 22 23 25 27 29 30 31 32 32 32 33 34 35 36 37 38 39 39 39 40 40 41 42 43 45 46 47 49 50 51 52 52 51 51 50 49 49 49 49 50 50 50
57 56 55 55 54 53 52 51 49 48 47 45 43 40 39 38 38 38 37 36 35 33 32 30 29 27 27 25 24 22 22 21 21 20 20 20 20 20 19 19 19 19 20 21 22 24 26 28 29 30 31 32 32 33 34 35 36 37 38 38 39 39 40 40 41 42 44 45 46 47 49 50 51 51 51 50 49 49 48 47 48 48 49 49 49
57 56 54 54 53 53 52 51 50 49 47 46 44 42 39 38 38 38 37 36 35 33 32 31 29 27 26 25 24 22 21 21 21 20 20 20 20 19 19 18 18 19 19 20 21 23 25 27 28 30 31 31 32 32 33 34 36 37 38 38 39 40 40 40 41 42 44 45 46 47 48 50 50 51 50 50 48 47 47 47 47 47 48 48 49
Wind_Direction
280 280 279 279 279 279 278 278 278 278 278 278 277 277 277 277 277 276 276 276 276 276 275 275 275 274 274 274 273 273 273 272 272 271 271 270 270 269 268 268 267 266 265 264 263 261 260 258 257 256 255 253 253 252 251 251 250 250 249 249 249 249 249 249 248 246 244 244 244 243 243 243 243 243 243 243 243 243 243 242 241 240 239 239 240
280 280 280 279 279 279 279 278 278 278 278 278 278 277 277 277 277 277 276 276 276 276 275 275 275 274 274 274 273 273 273 272 272 272 271 270 270 269 268 267 266 265 265 264 263 262 261 260 258 257 256 254 253 253 252 251 251 250 250 250 250 250 250 250 249 248 246 245 245 246 246 246 245 245 244 244 244 243 243 243 243 242 240 240 239
280 280 280 279 279 279 279 279 278 278 278 278 278 277 277 277 277 277 276 276 276 276 276 275 275 275 274 274 273 273 273 272 272 271 271 270 269 268 267 266 265 265 264 263 262 261 260 259 258 257 256 256 255 254 253 252 252 251 251 251 251 251 251 251 251 249 248 246 246 246 247 247 247 247 247 246 246 245 245 244 244 244 243 242 241
280 280 280 280 279 279 279 279 278 278 278 278 277 277 277 277 277 276 276 276 276 275 275 275 275 274 274 274 273 273 272 272 271 270 269 268 267 266 265 265 264 264 263 262 262 261 260 259 258 257 257 256 255 255 254 254 254 253 253 252 252 252 252 252 252 251 250 248 247 247 247 247 247 248 248 248 248 248 247 246 246 245 245 244 243
280 280 280 280 279 279 279 279 279 278 278 278 278 277 277 277 277 276 276 276 276 275 275 275 274 274 274 273 273 272 272 271 270 269 269 268 267 266 265 265 264 264 263 262 261 260 260 259 258 258 257 256 256 255 255 255 254 254 254 254 253 253 253 253 253 252 251 250 249 248 247 247 247 247 248 248 249 249 249 248 247 246 246 246 245
281 281 281 280 280 280 280 280 279 279 279 279 279 278 278 278 278 277 277 277 277 276 276 276 275 275 274 273 273 272 271 271 270 269 269 268 268 267 267 266 265 264 263 262 262 261 260 259 259 258 258 257 256 255 255 255 255 255 254 254 254 254 254 254 253 253 253 251 250 249 248 247 247 247 247 247 248 248 249 249 248 248 247 247 246
282 282 282 282 282 281 281 281 281 281 280 280 280 280 279 279 279 278 278 278 278 277 277 276 276 275 275 274 273 272 272 271 271 271 270 270 269 269 268 266 265 264 263 263 262 261 260 260 259 258 257 257 256 255 255 254 254 254 254 254 254 254 254 254 254 254 253 253 252 251 250 249 248 247 247 247 247 248 248 248 248 248 247 247 247
283 283 283 283 282 282 282 282 281 281 281 281 280 280 280 279 279 279 279 278 278 277 277 277 276 276 275 275 274 274 273 273 272 271 271 270 269 268 267 266 266 265 264 262 261 260 259 259 258 257 256 255 255 254 254 254 254 254 254 254 254 254 254 254 254 254 254 253 253 252 251 250 249 248 247 247 247 247 247 247 247 247 247 246 246
283 283 283 283 282 282 282 282 281 281 281 281 280 280 280 280 279 279 279 278 278 278 277 277 276 276 276 276 275 275 274 273 272 271 270 269 269 268 267 267 266 265 264 263 261 260 259 258 257 256 255 254 254 253 253 253 253 253 253 254 254 254 254 254 254 254 254 253 253 253 252 251 250 250 249 248 247 247 247 247 247 247 247 246 245
284 283 283 283 282 282 282 282 281 281 281 281 281 280 280 280 280 279 279 279 279 278 278 278 277 277 276 276 276 275 274 273 272 271 271 270 269 268 268 267 267 266 265 264 262 261 259 257 256 256 255 254 253 253 253 253 253 253 253 253 254 254 253 253 253 253 253 253 252 252 252 251 251 250 249 249 248 247 247 247 247 247 246 246 245
285 284 284 284 283 283 283 282 282 282 282 281 281 281 281 280 280 280 280 280 279 279 279 278 278 277 277 276 276 275 274 273 272 272 271 270 269 268 268 267 267 267 265 264 263 262 260 258 257 255 255 254 254 253 253 252 252 253 253 253 253 253 253 253 253 253 253 252 252 252 251 251 250 250 249 249 249 248 248 248 247 246 246 245 244
287 286 286 286 285 285 285 284 284 283 283 283 282 282 282 281 281 281 280 280 280 279 279 279 278 277 277 276 276 276 275 274 273 273 272 272 271 270 269 268 267 266 265 264 263 262 261 260 258 256 255 254 254 253 252 252 252 252 252 252 253 253 253 252 252 252 252 252 251 251 251 250 250 249 249 249 248 248 248 248 247 246 246 245 244
289 288 288 288 287 287 286 286 285 285 285 284 284 283 283 282 282 282 281 281 280 280 279 279 279 278 277 277 276 276 275 275 274 274 274 273 272 271 269 268 267 266 265 264 264 263 262 261 260 258 256 255 254 253 253 252 252 252 252 252 252 252 252 252 252 251 251 251 251 250 250 249 249 249 248 248 248 248 247 247 247 246 245 245 245
290 289 289 289 288 288 287 287 287 286 286 285 285 284 284 283 283 282 282 281 281 280 280 280 279 279 278 278 277 277 276 275 275 274 274 273 271 270 269 268 267 266 265 265 264 263 262 261 260 259 258 256 255 254 253 253 252 252 252 252 252 252 252 252 251 251 250 250 250 249 249 249 248 248 248 248 247 247 247 246 246 245 245 245 245
291 290 290 289 289 288 288 287 287 286 286 285 285 284 284 283 283 283 282 282 282 281 281 281 280 280 279 278 277 277 276 274 274 274 273 272 271 270 270 269 268 267 266 265 264 263 262 261 260 259 258 257 255 254 253 253 252 252 252 251 251 251 251 251 250 250 249 249 248 248 248 248 248 247 247 247 247 247 246 246 245 245 245 244 244
294 293 292 292 291 290 290 289 288 288 288 287 286 286 286 285 285 285 284 284 283 283 282 281 281 280 280 279 278 277 276 275 275 275 275 274 273 272 271 270 269 268 267 265 264 263 262 261 260 259 258 257 256 254 253 253 252 252 251 251 250 250 250 249 249 248 248 247 247 247 247 247 247 247 247 247 246 246 246 245 245 244 244 243 243
295 295 294 294 293 292 292 291 290 290 289 289 288 288 288 288 287 287 286 286 285 284 284 283 282 281 280 280 279 278 277 277 277 277 276 275 273 272 271 271 270 268 267 265 264 262 262 261 260 259 258 257 256 255 254 253 252 251 251 250 249 249 249 248 248 247 247 246 246 246 246 246 246 246 246 246 245 245 245 245 244 243 242 242 242
296 295 295 294 294 293 293 292 291 291 290 290 289 289 289 288 288 288 287 287 286 285 285 284 283 282 281 280 279 278 279 279 278 277 276 274 273 272 271 270 269 268 266 265 263 262 261 260 259 259 258 257 256 255 254 253 252 251 250 249 248 247 247 247 247 246 246 245 245 245 245 245 245 245 245 245 245 244 244 244 243 242 241 241 240
296 296 295 295 294 293 293 292 292 291 290 290 289 289 289 289 289 288 288 287 286 285 284 284 283 282 280 279 278 278 279 279 278 277 275 274 273 271 270 269 268 266 265 264 263 262 260 260 258 257 257 256 255 255 254 253 251 250 249 248 247 246 246 246 245 245 245 245 244 245 245 244 244 244 244 243 243 243 243 242 242 241 240 240 239
297 297 296 296 295 294 294 293 293 292 291 291 290 290 290 289 289 288 288 287 285 284 283 282 281 280 279 279 278 279 279 279 277 276 275 274 273 272 271 269 268 266 265 263 262 261 260 259 257 256 256 255 255 254 253 252 250 249 248 247 246 245 245 245 245 245 244 244 243 243 243 243 243 242 242 242 242 241 241 241 240 240 239 239 238
298 298 297 296 296 295 295 294 293 292 292 291 290 290 289 289 288 287 287 286 285 283 283 281 280 279 279 279 279 280 280 279 277 276 276 274 273 273 272 270 269 267 265 264 262 261 259 258 257 256 255 255 254 253 252 251 249 248 247 246 245 245 244 244 244 243 243 242 242 242 242 242 241 241 240 240 240 240 240 239 239 239 238 238 237
299 299 298 298 297 296 296 295 294 293 292 291 291 290 289 289 288 287 286 286 285 284 283 282 281 280 280 280 281 281 280 278 277 276 276 275 274 273 272 271 269 267 265 264 262 261 260 258 257 256 255 254 254 253 251 250 248 247 246 245 244 244 243 243 242 242 241 241 240 240 240 241 240 240 239 239 239 239 239 238 238 237 237 237 237
302 301 301 300 299 298 298 297 296 295 294 294 293 292 291 290 289 288 287 286 285 284 283 282 281 280 281 281 282 281 280 278 277 276 275 274 274 273 272 270 268 266 265 264 263 262 260 259 257 256 255 254 253 252 251 249 247 246 245 244 244 243 242 242 241 240 240 239 239 239 239 239 239 239 238 238 238 238 238 238 237 237 237 237 237
304 304 303 302 301 300 300 299 298 297 297 296 295 294 293 292 291 290 289 287 286 284 283 282 281 281 281 282 282 282 280 278 277 275 274 274 273 272 271 269 267 265 264 264 263 261 259 258 256 254 254 253 252 251 250 248 246 244 244 243 243 242 241 240 240 239 238 238 238 238 238 238 238 238 238 237 237 237 238 238 238 237 237 237 237
306 306 305 304 303 303 302 301 300 299 298 297 296 296 295 294 293 292 290 288 287 286 284 283 283 282 282 283 284 283 281 278 276 275 273 273 272 272 270 268 266 264 263 262 261 259 257 256 254 253 251 250 250 248 247 246 244 243 242 242 241 240 239 239 238 238 237 237 237 237 237 237 237 237 237 237 237 237 237 237 237 237 237 237 236
309 308 308 307 306 305 304 303 302 301 300 298 297 296 296 295 294 293 291 290 288 287 285 284 283 283 283 284 284 283 281 278 276 275 273 273 272 272 270 268 266 264 262 261 260 258 256 254 253 251 249 248 247 245 245 244 242 241 241 241 240 240 239 238 238 237 237 236 236 236 236 236 237 237 236 236 236 236 236 236 236 236 236 236 235
311 310 310 309 308 307 306 305 303 302 301 300 299 297 296 295 294 292 291 290 288 287 285 284 284 284 284 285 284 283 281 279 277 276 274 273 272 272 271 269 266 263 261 260 259 257 256 254 252 250 248 246 245 243 242 241 241 240 240 240 240 240 239 238 237 237 237 238 238 237 237 236 236 235 235 235 235 236 236 236 236 235 235 235 234
313 312 311 310 310 309 307 306 304 303 302 301 300 299 298 297 295 292 291 289 288 287 285 284 284 284 285 285 285 283 280 278 278 278 276 275 274 272 270 269 267 264 261 259 258 256 255 253 251 249 247 245 244 243 241 239 238 238 238 239 239 239 239 238 237 237 237 237 237 236 236 235 234 234 234 235 235 235 235 235 234 234 234 234 234
315 314 313 312 312 311 309 307 305 304 304 303 302 300 299 298 297 295 293 290 288 287 286 285 284 284 285 285 284 283 280 277 276 277 277 277 275 272 269 268 266 263 261 259 257 255 253 251 249 248 246 244 243 242 240 238 237 236 236 237 238 238 238 237 236 235 235 235 235 235 234 234 234 234 234 234 234 234 234 233 233 233 233 232 232
317 315 314 313 313 312 310 309 307 306 305 304 303 302 301 300 298 297 296 293 290 288 286 286 286 286 286 285 284 283 281 277 274 274 276 277 275 272 269 267 265 263 261 259 256 254 252 250 248 246 245 243 242 241 239 238 236 235 235 235 236 236 235 234 234 233 232 233 233 234 233 233 233 233 233 233 233 233 232 232 232 231 231 231 230
318 317 316 315 314 314 312 311 309 308 307 306 305 304 303 302 300 298 296 295 293 290 288 286 287 288 289 288 287 285 283 280 276 273 273 275 275 272 269 267 265 263 260 258 255 253 250 248 246 245 243 242 240 239 238 237 235 234 233 233 233 233 233 233 232 231 230 231 232 232 232 231 232 232 232 232 231 231 231 231 230 230 230 229 229
320 319 318 318 317 316 315 313 312 311 310 308 307 307 306 305 304 302 299 295 293 292 290 288 287 288 289 289 289 287 285 282 279 275 273 272 273 271 269 267 265 263 260 257 254 251 249 247 245 243 242 240 239 237 236 236 235 234 233 232 231 231 232 231 231 231 230 230 231 231 230 230 230 230 229 229 229 229 229 229 229 229 229 228 228
323 322 321 321 321 320 318 317 315 313 312 311 310 309 308 307 307 306 304 299 294 291 290 290 289 289 289 289 290 289 287 283 281 278 275 273 271 270 268 266 264 262 259 257 254 251 248 246 244 242 241 239 238 236 236 235 235 234 232 231 230 230 230 230 230 230 230 230 230 230 229 229 229 228 227 227 227 227 228 227 227 227 227 227 227
326 325 324 324 323 323 321 320 318 316 315 314 313 312 311 310 308 307 306 304 300 294 291 290 290 290 289 289 289 290 289 286 282 279 277 274 271 269 267 265 263 261 259 256 253 250 248 245 243 242 240 238 237 236 235 235 234 233 232 230 229 228 229 229 229 229 229 229 229 228 228 228 227 226 226 225 225 225 225 225 225 224 225 225 225
328 327 327 326 326 325 324 322 320 319 317 316 315 314 313 311 310 309 308 307 305 301 295 292 291 291 291 290 289 289 288 286 283 280 278 275 273 270 267 265 263 261 258 255 252 249 247 245 243 241 239 238 237 236 235 234 232 231 230 229 228 227 227 227 228 228 228 228 228 228 228 227 226 225 224 224 224 223 223 222 222 222 222 223 223
330 329 329 329 328 327 326 324 323 321 320 319 318 317 315 313 311 310 309 307 306 304 301 296 293 291 292 292 292 291 289 286 282 279 278 276 274 271 268 266 263 260 258 254 252 249 246 244 242 240 238 237 237 236 235 233 232 230 229 227 227 226 226 226 226 227 227 227 227 227 226 226 225 224 223 223 222 222 221 220 220 220 220 221 221
332 331 331 330 330 329 327 326 325 323 322 321 320 319 318 316 314 312 311 309 307 306 304 301 297 293 292 292 292 292 292 289 285 280 277 276 274 272 270 267 264 261 258 254 251 249 246 243 241 239 238 237 236 236 234 233 231 229 228 227 226 226 225 225 225 225 225 225 226 225 225 225 224 224 223 223 222 221 220 219 218 217 217 218 219
334 333 333 332 331 330 329 327 326 325 324 323 322 321 320 318 317 315 313 312 310 308 306 304 301 297 294 293 292 292 292 290 287 283 280 277 275 273 270 267 264 261 258 254 251 248 245 242 240 238 237 236 235 234 233 233 231 229 227 227 226 225 225 224 224 224 224 225 225 225 224 223 223 222 222 222 221 220 219 218 217 216 216 216 217
335 335 335 334 334 333 331 329 328 326 326 325 324 323 322 320 319 317 315 314 312 310 308 306 304 301 297 294 293 293 292 290 287 284 281 279 276 273 270 267 264 261 258 254 251 247 244 242 239 237 236 235 234 233 232 231 230 229 228 227 226 225 225 224 224 224 224 224 224 223 222 222 221 221 220 220 219 218 217 216 216 216 216 216 216
337 337 337 336 336 335 334 331 330 328 327 327 326 326 324 323 321 319 317 316 314 312 310 309 306 304 300 296 294 293 293 291 288 284 281 278 276 273 270 267 263 260 257 253 250 247 244 240 238 236 235 234 233 232 230 229 229 228 228 227 226 226 225 225 224 224 223 223 222 221 220 220 220 219 218 218 218 217 216 215 215 215 215 215 216
338 338 338 338 338 337 336 334 332 330 329 328 328 327 326 325 323 321 319 317 316 314 312 310 308 306 303 299 296 294 293 292 290 286 282 278 276 273 270 267 263 260 256 253 249 246 243 240 237 235 234 233 231 230 229 228 227 227 226 226 226 226 226 226 225 225 224 222 220 218 217 217 217 217 217 217 217 216 216 216 215 215 215 215 215
339 340 340 339 339 339 338 336 334 332 330 329 329 328 328 327 325 323 321 319 318 316 314 312 310 308 306 302 299 296 293 292 291 288 283 279 276 273 269 266 263 259 256 252 248 245 242 239 236 234 233 231 230 229 228 227 227 226 225 224 224 224 225 225 225 225 224 222 219 216 214 214 214 214 214 215 215 215 216 216 215 215 215 214 214
340 340 340 340 340 340 339 338 336 334 332 331 330 329 329 328 327 325 323 321 319 318 316 314 312 310 308 305 301 298 295 293 291 289 284 279 275 272 268 265 262 259 255 251 248 244 241 238 236 233 232 230 229 228 227 226 226 225 225 224 223 222 222 222 222 222 221 220 217 215 212 211 211 212 212 213 214 214 214 214 214 214 214 213 213
341 341 341 341 341 341 341 340 339 336 334 332 331 330 330 329 328 327 325 323 321 319 318 316 314 311 309 306 303 299 297 294 291 288 283 278 274 270 267 264 262 259 255 251 247 243 240 237 235 232 231 229 228 227 226 225 224 224 224 223 222 221 221 220 219 218 216 216 214 213 211 210 210 210 211 212 213 213 213 213 212 212 212 212 212
341 341 342 342 342 342 341 341 340 339 337 334 333 332 331 330 329 328 327 325 323 321 319 318 316 313 311 308 304 300 297 295 292 288 283 278 273 270 266 263 261 258 254 250 247 243 240 237 234 232 230 228 226 225 224 224 223 222 222 222 222 221 220 219 217 215 213 212 211 211 210 210 210 210 211 211 212 212 212 211 211 211 211 211 211
342 342 342 342 342 342 342 341 341 340 339 337 335 333 332 331 330 329 328 327 325 323 321 319 317 315 312 309 306 301 298 295 291 288 283 278 272 269 266 262 259 257 254 250 246 242 239 236 234 232 230 227 225 224 223 222 222 221 220 220 220 220 220 218 216 214 212 211 210 209 209 210 210 211 211 212 212 212 212 211 210 210 210 210 209
343 342 342 342 342 342 342 341 341 340 340 339 337 335 333 332 331 330 330 328 327 325 323 321 319 316 313 311 307 302 298 294 290 287 283 278 272 268 265 261 258 255 253 249 245 241 238 236 234 232 230 227 225 223 222 221 221 220 219 218 218 219 219 218 216 214 212 210 209 209 209 209 210 211 211 212 212 212 212 211 210 209 209 209 208
343 342 342 342 342 342 343 342 341 341 340 340 339 337 335 334 333 332 331 330 328 327 325 323 320 317 315 312 308 304 300 295 291 286 282 278 273 269 265 261 257 253 251 248 244 240 238 235 233 232 230 227 224 222 221 220 220 219 218 217 216 217 217 217 216 214 212 210 209 209 209 210 210 211 211 212 212 211 211 209 208 208 208 208 208
344 343 342 342 342 342 343 343 343 341 340 340 340 339 338 336 334 333 332 332 331 329 327 325 322 319 316 313 309 305 301 297 292 287 283 279 275 271 267 262 257 252 250 247 243 240 237 235 233 231 229 227 224 222 220 219 219 218 217 216 215 215 215 216 215 214 212 210 209 209 209 210 210 211 211 211 211 211 209 208 207 207 207 207 207
346 344 343 343 342 343 343 344 344 343 342 341 341 341 339 337 335 334 333 333 332 331 329 327 325 321 318 314 311 307 303 298 294 290 285 281 277 272 268 263 258 252 249 245 242 239 237 235 233 231 229 227 224 221 219 218 218 218 217 216 214 214 214 214 214 213 212 211 209 209 209 210 211 211 211 210 210 209 208 207 206 206 206 207 207
347 346 345 344 344 344 344 344 344 344 343 342 341 341 341 339 337 335 335 334 334 333 331 329 327 324 320 316 313 310 305 300 296 292 287 283 279 274 269 264 258 252 247 244 241 238 236 235 233 231 229 227 224 221 218 217 217 217 216 215 214 213 213 213 213 212 211 211 209 209 209 211 211 211 210 210 209 207 206 206 205 206 206 206 206